www.pogodaiklimat.ru

Погода и климат >> Архив погоды >> Гана >> Sefwi Bekwai


ПОГОДА в Sefwi Bekwai

  • Прогноз погоды в Sefwi Bekwai
  • Монитор погоды в Sefwi Bekwai
  • Климат города

АРХИВ ПОГОДЫ в Sefwi Bekwai

Время (UTC), дата Ветер
(напр.,м/с)
 
Видим.   Явления Облачность Т
(С)
Тd
(С)
f
(%)
Тe
(С)
Тes
(С)
Комфортность P
(гПа)
Po
(гПа)
Тmin
(С)
Tmax
(С)
R
(мм)
R24
(мм)
S
(см)
06 13.07 штиль 0 10 км 9/6 330 м
[Sc Ac trans]
+24.1 +23.3 95 +32 +32 очень
душно
1015.6 1016.0 +22.5 9
09 13.07 З 1 14 км 9/8 330 м
[Cu Sc Ac trans]
+26.5 +23.8 85 +36 +38 очень
душно
1014.6 1015.0
12 13.07 ЮЗ 2 16 км 9/5 450 м
[Cu med, cong Ac trans]
+29.1 +24.2 75 +41 +46 опасность
перегрева
1015.3 1015.0
15 13.07 ЮВ 1 16 км в посл. час дождь 9/5 360 м
[Cu Sc Ac trans]
+27.0 +24.0 84 +37 +41 очень
душно
1014.0 1014.0
18 13.07 штиль 0 15 км {дождь} 9/0
[Ac trans]
+27.0 +23.9 83 +37 +37 очень
душно
1012.9 1013.0 +30.0 2
03 14.07 ЮЗ 1 12 км 9/9 330 м
[Sc]
+24.3 +23.2 94 +33 +33 очень
душно
1015.0 1015.0
06 14.07 штиль 0 8000 м слабый дождь 9/6 330 м
[Sc Ac As]
+24.5 +23.2 92 +33 +33 очень
душно
1015.7 1016.0 +23.9 2
09 14.07 З 1 10 км слабый дождь 9/5 330 м
[Sc Ac trans]
+25.0 +23.6 92 +34 +37 очень
душно
1015.3 1015.0
12 14.07 СЗ 2 14 км {дождь} 9/4 450 м
[Cu med, cong Ac trans]
+28.5 +23.4 74 +39 +45 очень
душно
1014.4 1014.0 0.2
15 14.07 СЗ 1 16 км 9/4 450 м
[Cu med, cong Ac trans]
+29.5 +24.5 75 +42 +46 опасность
перегрева
1012.7 1013.0
18 14.07 З 1 8000 м слабый дождь 9/6 360 м
[Sc Ac As]
+28.7 +25.1 81 +42 +42 опасность
перегрева
1012.2 1012.0 +30.0 0.2
21 14.07 ЮЗ 1 10 км {дождь} 9/9 330 м
[Sc]
+24.9 +23.4 91 +33 +33 очень
душно
1014.7 1015.0
00 15.07 ЮЗ 1 10 км {дождь} 9/5 330 м
[Sc Ac trans]
+24.5 +23.3 93 +33 +33 очень
душно
1015.3 1015.0 0.4
03 15.07 ЮЗ 2 10 км 9/9 330 м
[Sc]
+24.2 +23.6 96 +33 +33 очень
душно
1013.5 1014.0
06 15.07 ЮЗ 2 10 км 9/9 330 м
[Sc]
+24.0 +22.9 94 +32 +32 очень
душно
1014.1 1014.0 +23.8 0.6
09 15.07 Ю 1 14 км 9/9 330 м
[Sc]
+25.6 +23.4 88 +35 +36 очень
душно
1015.9 1016.0
12 15.07 ЮВ 2 15 км 9/6 <50 м
[Cu Sc Ac trans]
+27.8 +24.3 81 +39 +44 очень
душно
1015.2 1015.0
15 15.07 Ю 3 18 км 6/6 480 м
[Cu med, cong Ac trans]
+31.0 +23.7 65 +42 +46 опасность
перегрева
1012.3 1012.0
18 15.07 Ю 1 13 км 9/4 360 м
[Cu Sc Ac trans]
+29.2 +24.2 74 +41 +41 опасность
перегрева
1012.7 1013.0 +31.0
21 15.07 ЮЗ 1 13 км 9/9 360 м
[Sc]
+25.0 +22.9 88 +33 +33 очень
душно
1014.9 1015.0
00 16.07 ЮЗ 4 13 км 9/6 360 м
[Sc Ac trans]
+24.5 +23.1 92 +33 +33 очень
душно
1015.7 1016.0
03 16.07 ЮЗ 2 400 м слабый дождь 9/6 330 м
[Sc Ac As]
+24.0 +23.0 94 +32 +32 очень
душно
1014.9 1015.0
06 16.07 штиль 0 10 км {дождь} 9/4 330 м
[Sc Ac trans]
+23.8 +23.0 95 +32 +32 очень
душно
1015.6 1016.0 +23.4 2
09 16.07 Ю 1 14 км 9/8 330 м
[Cu Sc Ac trans]
+26.1 +23.2 84 +35 +37 очень
душно
1016.5 1017.0
12 16.07 Ю 1 16 км 9/8 400 м
[Cu Sc Ac trans]
+29.5 +23.5 70 +40 +43 очень
душно
1015.0 1015.0
18 16.07 штиль 0 15 км {гроза, дождь} 9/5 330 м
[Cu Sc Ac trans]
+26.0 +24.0 89 +36 +36 очень
душно
1013.3 1013.0 +30.7 5
21 16.07 Ю 1 12 км 9/9 330 м
[Sc]
+25.5 +23.9 91 +35 +35 очень
душно
1015.2 1015.0
03 17.07 ЮЗ 1 12 км 9/9 330 м
[Sc]
+24.3 +23.3 94 +33 +33 очень
душно
1014.4 1014.0
06 17.07 Ю 1 10 км 9/9 330 м
[Sc]
+24.4 +23.3 94 +33 +33 очень
душно
1015.2 1015.0 +23.8 5
21 17.07 ЮВ 1 12 км 9/9 360 м
[Sc]
+26.0 +23.3 85 +35 +35 очень
душно
1015.3 1015.0
00 18.07 штиль 0 12 км 9/5 330 м
[Sc Ac trans]
+25.0 +23.2 90 +33 +33 очень
душно
1015.8 1016.0
06 18.07 штиль 0 6000 м слабый дождь 9/6 330 м
[Sc Ac As]
+24.2 +23.2 94 +32 +32 очень
душно
1015.7 1016.0 +23.9 0.9
12 18.07 З 1 15 км {дождь} 9/5 360 м
[Cu Sc Ac trans]
+28.5 +23.9 76 +39 +46 очень
душно
1015.5 1016.0 0.2
15 18.07 ЮЗ 1 16 км 9/5 450 м
[Cu med, cong Ac trans]
+31.2 +24.6 68 +44 +48 опасность
перегрева
1013.0 1013.0
18 18.07 штиль 0 15 км 6/4 360 м
[Cb cap Ac trans]
+28.6 +24.4 78 +40 +40 очень
душно
1012.6 1013.0 +31.0 0.2
03 19.07 Ю 1 12 км 9/9 330 м
[Sc]
+24.7 +23.3 92 +33 +33 очень
душно
1014.1 1014.0
09 19.07 Ю 1 14 км {дождь} 9/9 330 м
[Sc]
+25.0 +23.6 92 +34 +35 очень
душно
1016.1 1016.0
18 19.07 ЮЗ 1 16 км 4/4 400 м
[Cb cap]
+29.5 +24.8 76 +42 +42 опасность
перегрева
1011.8 1012.0 +31.5 4
21 19.07 ЮЗ 1 13 км 8/4 360 м
[Sc Ac trans]
+26.5 +23.8 85 +36 +36 очень
душно
1014.2 1014.0

 

Местоположение метеостанции Sefwi Bekwai (Гана): широта 6.20 долгота -2.33 высота над уровнем моря 172 м.

В архиве по умолчанию представлена погода в Sefwi Bekwai за последнюю неделю. Архивные данные за месяц целиком и за предыдущие месяцы, начиная с января 2011 года, Вы можете получить, выбрав интересующий диапазон дат из раскрывающегося списка и нажав кнопку "Ввод!".


*Определитесь, кто Вы:
робот инопланетянин человек

Внимание! Время в таблицах - всемирное. Для получения местного времени необходимо прибавить поправку, которая в Sefwi Bekwai равна 1 ч.

Смотрите также архив погоды в соседних городах и на ближайших метеорологических станциях:

Погода в Kumasi (Гана) (99 км)
Погода в Sunyani (Гана) (126 км)
Погода в Adiake (Кот-д'Ивуар) (147 км)
Погода в Axim (Гана) (148 км)
Погода в Akim Oda (Гана) (152 км)
Погода в Takoradi (Гана) (159 км)
Погода в Wenchi (Гана) (174 км)
Погода в Saltpond (Гана) (178 км)
Погода в Abetifi (Гана) (182 км)
Погода в Abidjan (Кот-д'Ивуар) (206 км)

Пояснения к столбцам:

Ветер - указаны скорость ветра в м/с - средняя за 10 мин, порывы в срок и между сроками (в фигурных скобках) и направление, откуда дует ветер: С - северный, СВ - северо-восточный, В - восточный, ЮВ - юго-восточный, Ю - южный, ЮЗ - юго-западный, З - западный, СЗ - северо-западный.
Видимость - горизонтальная дальность видимости в метрах или километрах. При видимости от 1 до 10 км при отсутствии осадков обычно наблюдается дымка, при ухудшении видимости до 1 км и менее - туман. В сухую погоду видимость может ухудшаться дымом, пылью или мглою.
Явления - указаны атмосферные явления, наблюдавшиеся в срок или в последний час перед сроком; фигурными скобками обозначены явления, наблюдавшиеся между сроками (за 1-3 часа до срока); квадратными скобками обозначены град или гололедные отложения с указанием их диаметра в мм.
Облачность - указаны через наклонную черту общая и нижняя облачность в баллах и высота нижней границы облаков в метрах; квадратными скобками обозначены формы облаков: Ci - перистые, Cs - перисто-слоистые, Cc - перисто-кучевые, Ac - высококучевые, As - высокослоистые, Sc - слоисто-кучевые, Ns - слоисто-дождевые, Cu - кучевые, Cb - кучево-дождевые. Подробнее классификацию облаков см. в Атласе облаков (PDF).
T - Температура воздуха - температура, измеренная на высоте 2 м над землей.
Td - Температура точки росы - температура, при понижении до которой содержащийся в воздухе водяной пар достигнет насыщения.
f - Относительная влажность воздуха - влажноcть воздуха, измеренная на высоте 2 м над землей.
Te - Эффективная температура - температура, которую ощущает одетый по сезону человек в тени. Характеристика душности погоды. При расчете учитывается влияние влажности воздуха и скорости ветра на теплоощущения человека.
Tes - Эффективная температура на солнце - температура, которую ощущает человек, с поправкой на солнечный нагрев. Характеристика знойности погоды. Зависит от высоты солнца над горизонтом, облачности и скорости ветра. Ночью, в пасмурную погоду, а также при ветре 12 м/с и более поправка равна нулю.
P - Атмосферное давление - приведенное к уровню моря атмосферное давление.
Po - Атмосферное давление - измеренное на уровне метеостанции атмосферное давление.
Tmin - Минимальная температура - минимум температуры воздуха на высоте 2 м над землей.
Tmax - Максимальная температура - максимум температуры воздуха на высоте 2 м над землей.
R - Количество осадков - Количество выпавших осадков за период времени, мм. При наведении курсора мыши на число - период времени, за который выпало указанное количество осадков.
R24 - Количество осадков - Количество выпавших осадков за 24 часа, мм.
S - Снежный покров - Высота снежного покрова, см. При наведении курсора мыши на число - состояние снежного покрова и степень покрытия местности в баллах.